Location: Kernascl�den
(48.0062°N, 3.3198°W)
Time: 02:28:01
(UTC+00:00)

Cosmos 1626 - Visible Passes

Search period start: 19 May 2021 00:00
Search period end: 29 May 2021 00:00
Orbit: 488 x 494 km, 82.5° (Epoch: 18 May)

Date Brightness Start Highest point End Pass type
(mag) Time Alt. Az. Time Alt. Az. Time Alt. Az.
19 May 2.1 02:06:51 43° SW 02:07:52 66° W 02:11:33 10° N visible
20 May 2.0 01:44:23 53° S 01:45:10 82° E 01:48:53 10° N visible
21 May 2.5 01:21:53 46° SE 01:22:31 53° E 01:26:08 10° NNE visible
21 May 4.4 02:56:23 10° W 02:58:05 13° WNW 02:59:53 10° NW visible
22 May 3.1 00:59:23 33° ESE 00:59:53 35° E 01:03:17 10° NNE visible
22 May 4.0 02:33:53 15° W 02:35:14 18° WNW 02:37:52 10° NNW visible
23 May 3.7 00:36:53 24° E 00:37:17 24° E 00:40:19 10° NE visible
23 May 3.5 02:11:23 22° W 02:12:25 25° WNW 02:15:34 10° NNW visible
24 May 4.2 00:14:21 17° E 00:14:44 17° E 00:17:10 10° NE visible
24 May 3.0 01:48:51 32° WSW 01:49:39 36° WNW 01:53:06 10° N visible
24 May 4.6 23:51:49 12° E 23:52:11 12° E 23:53:35 10° ENE visible
25 May 2.3 01:26:18 48° WSW 01:26:54 54° WNW 01:30:32 10° N visible
26 May 1.9 01:03:45 68° SSW 01:04:11 83° W 01:07:54 10° N visible
27 May 2.1 00:41:11 61° SE 00:41:30 64° E 00:45:10 10° NNE visible
27 May 4.6 02:15:59 10° W 02:17:10 11° WNW 02:18:21 10° NW visible
28 May 2.7 00:18:36 41° ESE 00:18:51 42° E 00:22:22 10° NNE visible
28 May 4.2 01:53:06 14° W 01:54:18 16° WNW 01:56:37 10° NNW visible
28 May 3.4 23:56:01 28° E 23:56:14 28° E 23:59:26 10° NNE visible
